TimeMST,TemperatureF,Dew PointF,Humidity,Sea Level PressureIn,VisibilityMPH,Wind Direction,Wind SpeedMPH,Gust SpeedMPH,PrecipitationIn,Events,Conditions,WindDirDegrees,DateUTC
12:53 AM,73.9,54.0,50,29.92,10.0,South,5.8,-,N/A,,Clear,190,2013-08-01 07:53:00
1:53 AM,75.0,52.0,44,29.91,10.0,SSE,4.6,-,N/A,,Clear,150,2013-08-01 08:53:00
2:53 AM,73.9,51.1,45,29.89,10.0,South,4.6,-,N/A,,Clear,180,2013-08-01 09:53:00
3:53 AM,70.0,53.1,55,29.90,10.0,SSW,3.5,-,N/A,,Clear,210,2013-08-01 10:53:00
4:53 AM,69.1,54.0,58,29.91,10.0,South,5.8,-,N/A,,Partly Cloudy,180,2013-08-01 11:53:00
5:53 AM,70.0,53.1,55,29.92,10.0,SSW,5.8,-,N/A,,Scattered Clouds,200,2013-08-01 12:53:00
6:53 AM,70.0,54.0,57,29.93,10.0,SSW,4.6,-,N/A,,Partly Cloudy,200,2013-08-01 13:53:00
7:53 AM,77.0,54.0,45,29.93,10.0,Calm,Calm,-,N/A,,Partly Cloudy,0,2013-08-01 14:53:00
8:53 AM,78.1,54.0,43,29.93,10.0,East,4.6,-,N/A,,Scattered Clouds,100,2013-08-01 15:53:00
9:53 AM,82.9,53.1,36,29.92,10.0,SSE,5.8,-,N/A,,Partly Cloudy,150,2013-08-01 16:53:00
10:53 AM,86.0,53.1,32,29.91,10.0,SW,9.2,17.3,N/A,,Scattered Clouds,230,2013-08-01 17:53:00
11:53 AM,87.1,52.0,30,29.90,10.0,WSW,10.4,-,N/A,,Overcast,250,2013-08-01 18:53:00
12:53 PM,86.0,52.0,31,30.18,10.0,South,9.2,-,N/A,,Mostly Cloudy,170,2013-08-01 19:53:00
1:53 PM,87.1,54.0,32,29.88,10.0,South,11.5,19.6,N/A,,Mostly Cloudy,180,2013-08-01 20:53:00
2:53 PM,87.1,54.0,32,29.86,10.0,South,13.8,21.9,N/A,,Mostly Cloudy,190,2013-08-01 21:53:00
3:53 PM,88.0,53.1,30,29.84,10.0,SSW,16.1,-,N/A,,Scattered Clouds,200,2013-08-01 22:53:00
4:53 PM,87.1,53.1,31,29.83,10.0,South,16.1,23.0,N/A,,Partly Cloudy,190,2013-08-01 23:53:00
5:53 PM,86.0,52.0,31,29.83,10.0,SSW,11.5,20.7,N/A,,Partly Cloudy,200,2013-08-02 00:53:00
6:53 PM,84.0,52.0,33,29.84,10.0,South,12.7,19.6,N/A,,Clear,190,2013-08-02 01:53:00
7:53 PM,81.0,51.1,35,29.84,10.0,South,5.8,-,N/A,,Clear,190,2013-08-02 02:53:00
8:53 PM,78.1,53.1,42,29.86,10.0,South,6.9,-,N/A,,Clear,180,2013-08-02 03:53:00
9:53 PM,75.9,54.0,46,29.86,10.0,South,5.8,-,N/A,,Clear,190,2013-08-02 04:53:00
10:53 PM,73.9,55.0,52,29.87,10.0,South,4.6,-,N/A,,Clear,190,2013-08-02 05:53:00
11:53 PM,73.9,54.0,50,29.86,10.0,SE,3.5,-,N/A,,Clear,140,2013-08-02 06:53:00